Find Local Weather

World > North America > United States > Missouri

Bernie, Missouri Regional Weather

Lat: 36.67N, Lon: 89.97W
Wx Zone: MOZ110
Warning FLW WEATHER ALERT - (More Info. Click Here) Warning
Feedback
Expires:201808181100;;248358
ASUS43 KLSX 181010
RWRMO 

WEATHER SUMMARY FOR MISSOURI
NATIONAL WEATHER SERVICE SPRINGFIELD MO
500 AM CDT SAT AUG 18 2018

NOTE: "FAIR" INDICATES FEW OR NO CLOUDS BELOW 12,000 FEET WITH NO
       SIGNIFICANT WEATHER AND/OR OBSTRUCTIONS TO VISIBILITY.
       CURRENT SKY AND/OR WEATHER CONDITIONS ARE NOT AVAILABLE FOR
       CHILLICOTHE AND FARMINGTON.


MOZ072>076-082>087-097>100-106>115-181100-
...SOUTH CENTRAL AND SOUTHEAST MISSOURI...
  
CITY           SKY/WX    TMP DP  RH WIND       PRES   REMARKS
CAPE GIRARDEAU CLOUDY    72  70  93 CALM      29.97S                  
FARMINGTON     CLEAR     69  67  93 W3        30.01S                  
POPLAR BLUFF   MOCLDY    72  72 100 SW3       29.98S                  
WEST PLAINS    CLEAR     69  67  93 CALM      30.04F                  
                                       
$$
  

SKY/WX - Weather  TMP - Temperature  DP - Dewpoint  RH - Relative Humidity
WIND - Wind Direction/Speed PRES - Barometric Pressure